| time (UTC) | temp F | wind direction | speed MPH | gust MPH | rain 1hr in | rain 24hr in | rain mn in | humidity % | barometer mb |
| 20260906125346 | 64 | 110 | 0.0 | 0.0 | 0.00 | 0.00 | 0.00 | 10 | 1014.7 |
| 20260906124812 | 63 | 133 | 0.0 | 0.0 | 0.00 | 0.00 | 0.00 | 10 | 1014.6 |
| 20260906124238 | 63 | 132 | 0.0 | 0.0 | 0.00 | 0.00 | 0.00 | 10 | 1014.6 |
| 20260906123704 | 62 | 88 | 0.0 | 0.0 | 0.00 | 0.00 | 0.00 | 10 | 1014.6 |
| 20260906123130 | 62 | 120 | 0.0 | 0.0 | 0.00 | 0.00 | 0.00 | 10 | 1014.6 |
| 20260906122556 | 62 | 120 | 0.0 | 0.0 | 0.00 | 0.00 | 0.00 | 10 | 1014.4 |
| 20260906122022 | 62 | 120 | 0.0 | 0.0 | 0.00 | 0.00 | 0.00 | 10 | 1014.4 |
| 20260906121448 | 61 | 120 | 0.0 | 0.0 | 0.00 | 0.00 | 0.00 | 10 | 1014.4 |
| 20260906120344 | 61 | 120 | 0.0 | 0.0 | 0.00 | 0.00 | 0.00 | 10 | 1014.1 |
| 20260906115810 | 61 | 120 | 0.0 | 0.0 | 0.00 | 0.00 | 0.00 | 10 | 1014.1 |
| 20260906114706 | 60 | 120 | 0.0 | 0.0 | 0.00 | 0.00 | 0.00 | 10 | 1013.9 |
| 20260906113602 | 60 | 120 | 0.0 | 0.0 | 0.00 | 0.00 | 0.00 | 10 | 1013.9 |
| 20260906112458 | 60 | 120 | 0.0 | 0.0 | 0.00 | 0.00 | 0.00 | 10 | 1013.9 |
| 20260906110253 | 60 | 120 | 0.0 | 0.0 | 0.00 | 0.00 | 0.00 | 10 | 1013.8 |
| 20260906105719 | 60 | 120 | 0.0 | 0.0 | 0.00 | 0.00 | 0.00 | 10 | 1013.7 |
| 20260906105145 | 60 | 120 | 0.0 | 0.0 | 0.00 | 0.00 | 0.00 | 10 | 1013.7 |
| 20260906104611 | 60 | 120 | 0.0 | 0.0 | 0.00 | 0.00 | 0.00 | 10 | 1013.5 |
| 20260906102406 | 60 | 120 | 0.0 | 0.0 | 0.00 | 0.00 | 0.00 | 10 | 1013.2 |
| 20260906101833 | 61 | 120 | 0.0 | 0.0 | 0.00 | 0.00 | 0.00 | 10 | 1013.0 |
| 20260906101258 | 61 | 120 | 0.0 | 0.0 | 0.00 | 0.00 | 0.00 | 10 | 1013.0 |
| 20260906095624 | 61 | 120 | 0.0 | 0.0 | 0.00 | 0.00 | 0.00 | 10 | 1012.6 |
| 20260906093420 | 61 | 120 | 0.0 | 0.0 | 0.00 | 0.00 | 0.00 | 10 | 1012.6 |
| 20260906092846 | 61 | 120 | 0.0 | 0.0 | 0.00 | 0.00 | 0.00 | 10 | 1012.6 |
| 20260906091212 | 62 | 120 | 0.0 | 0.0 | 0.00 | 0.00 | 0.00 | 10 | 1012.4 |
| 20260906090638 | 62 | 120 | 0.0 | 0.0 | 0.00 | 0.00 | 0.00 | 10 | 1012.3 |
| 20260906085534 | 62 | 120 | 0.0 | 0.0 | 0.00 | 0.00 | 0.00 | 10 | 1012.2 |
| 20260906085000 | 62 | 120 | 0.0 | 0.0 | 0.00 | 0.00 | 0.00 | 10 | 1012.2 |
| 20260906083856 | 62 | 120 | 0.0 | 0.0 | 0.00 | 0.00 | 0.00 | 10 | 1012.0 |
| 20260906083322 | 62 | 120 | 0.0 | 0.0 | 0.00 | 0.00 | 0.00 | 10 | 1011.9 |
| 20260906082748 | 62 | 120 | 0.0 | 0.0 | 0.00 | 0.00 | 0.00 | 10 | 1012.0 |
| 20260906082214 | 62 | 120 | 0.0 | 0.0 | 0.00 | 0.00 | 0.00 | 10 | 1012.0 |
| 20260906081640 | 62 | 120 | 0.0 | 0.0 | 0.00 | 0.00 | 0.00 | 10 | 1012.0 |
| 20260906080536 | 62 | 120 | 0.0 | 0.0 | 0.00 | 0.00 | 0.00 | 10 | 1012.0 |
| 20260906074331 | 63 | 120 | 0.0 | 0.0 | 0.00 | 0.00 | 0.00 | 10 | 1011.9 |
| 20260906073758 | 63 | 120 | 0.0 | 0.0 | 0.00 | 0.00 | 0.00 | 10 | 1011.9 |
| 20260906071553 | 63 | 120 | 0.0 | 0.0 | 0.00 | 0.00 | 0.00 | 10 | 1011.9 |
| 20260906071019 | 64 | 120 | 0.0 | 0.0 | 0.00 | 0.00 | 0.00 | 10 | 1011.9 |
| 20260906070445 | 64 | 120 | 0.0 | 0.0 | 0.00 | 0.00 | 0.00 | 10 | 1011.9 |
| 20260906065911 | 64 | 120 | 0.0 | 0.0 | 0.00 | 0.00 | 0.00 | 10 | 1011.9 |
| 20260906064237 | 64 | 120 | 0.0 | 0.0 | 0.00 | 0.00 | 0.00 | 10 | 1011.9 |
| 20260906063703 | 64 | 120 | 0.0 | 0.0 | 0.00 | 0.00 | 0.00 | 10 | 1011.8 |
| 20260906063129 | 64 | 120 | 0.0 | 0.0 | 0.00 | 0.00 | 0.00 | 10 | 1011.8 |
| 20260906062555 | 65 | 120 | 0.0 | 0.0 | 0.00 | 0.00 | 0.00 | 10 | 1011.8 |
| 20260906062021 | 65 | 120 | 0.0 | 0.0 | 0.00 | 0.00 | 0.00 | 10 | 1011.9 |
| 20260906060917 | 65 | 120 | 0.0 | 0.0 | 0.00 | 0.00 | 0.00 | 10 | 1011.9 |
| 20260906060343 | 65 | 120 | 0.0 | 0.0 | 0.00 | 0.00 | 0.00 | 10 | 1011.8 |
| 20260906054138 | 66 | 120 | 0.0 | 0.0 | 0.00 | 0.00 | 0.00 | 10 | 1011.7 |
| 20260906053604 | 66 | 120 | 0.0 | 0.0 | 0.00 | 0.00 | 0.00 | 10 | 1011.7 |
| 20260906052500 | 66 | 120 | 0.0 | 0.0 | 0.00 | 0.00 | 0.00 | 10 | 1011.8 |
| 20260906051926 | 66 | 120 | 0.0 | 0.0 | 0.00 | 0.00 | 0.00 | 10 | 1011.8 |
| 20260906051352 | 66 | 120 | 0.0 | 0.0 | 0.00 | 0.00 | 0.00 | 10 | 1012.0 |
| 20260906050248 | 67 | 120 | 0.0 | 0.0 | 0.00 | 0.00 | 0.00 | 10 | 1011.9 |
| 20260906045714 | 67 | 120 | 0.0 | 0.0 | 0.00 | 0.00 | 0.00 | 10 | 1012.0 |
| 20260906044610 | 67 | 120 | 0.0 | 0.0 | 0.00 | 0.00 | 0.00 | 10 | 1012.1 |
| 20260906042406 | 68 | 120 | 0.0 | 0.0 | 0.00 | 0.00 | 0.00 | 99 | 1012.3 |
| 20260906041831 | 68 | 120 | 0.0 | 0.0 | 0.00 | 0.00 | 0.00 | 99 | 1012.3 |
| 20260906040158 | 69 | 120 | 0.0 | 0.0 | 0.00 | 0.00 | 0.00 | 98 | 1012.2 |
| 20260906034523 | 70 | 120 | 0.0 | 0.0 | 0.00 | 0.00 | 0.00 | 96 | 1012.1 |
| 20260906033949 | 70 | 120 | 0.0 | 0.0 | 0.00 | 0.00 | 0.00 | 95 | 1012.2 |
| 20260906033415 | 70 | 120 | 0.0 | 0.0 | 0.00 | 0.00 | 0.00 | 95 | 1012.2 |
| 20260906032841 | 70 | 120 | 0.0 | 0.0 | 0.00 | 0.00 | 0.00 | 95 | 1012.2 |
| 20260906031737 | 71 | 120 | 0.0 | 0.0 | 0.00 | 0.00 | 0.00 | 93 | 1012.3 |
| 20260906025529 | 72 | 120 | 0.0 | 0.0 | 0.00 | 0.00 | 0.00 | 93 | 1012.2 |
| 20260906024955 | 72 | 120 | 0.0 | 0.0 | 0.00 | 0.00 | 0.00 | 94 | 1012.1 |
| 20260906024421 | 72 | 120 | 0.0 | 0.0 | 0.00 | 0.00 | 0.00 | 94 | 1012.0 |
| 20260906023317 | 72 | 120 | 0.0 | 0.0 | 0.00 | 0.00 | 0.00 | 93 | 1012.1 |
| 20260906022743 | 73 | 120 | 0.0 | 0.0 | 0.00 | 0.00 | 0.00 | 94 | 1012.0 |
| 20260906022209 | 73 | 120 | 0.0 | 0.0 | 0.00 | 0.00 | 0.00 | 93 | 1011.9 |
| 20260906021635 | 73 | 120 | 0.0 | 0.0 | 0.00 | 0.00 | 0.00 | 93 | 1011.9 |
| 20260906020530 | 73 | 113 | 0.0 | 0.0 | 0.00 | 0.00 | 0.00 | 92 | 1012.0 |
| 20260906015956 | 73 | 113 | 0.0 | 0.0 | 0.00 | 0.00 | 0.00 | 92 | 1012.0 |
| 20260906015422 | 73 | 113 | 0.0 | 0.0 | 0.00 | 0.00 | 0.00 | 91 | 1011.9 |
| 20260906014848 | 73 | 85 | 0.0 | 0.0 | 0.00 | 0.00 | 0.00 | 92 | 1011.8 |
| 20260906014314 | 73 | 85 | 0.0 | 0.0 | 0.00 | 0.00 | 0.00 | 90 | 1011.8 |
| 20260906013740 | 73 | 85 | 0.0 | 0.0 | 0.00 | 0.00 | 0.00 | 90 | 1011.8 |
| 20260906012636 | 73 | 85 | 0.0 | 0.0 | 0.00 | 0.00 | 0.00 | 89 | 1011.7 |
| 20260906012102 | 73 | 85 | 0.0 | 0.0 | 0.00 | 0.00 | 0.00 | 90 | 1011.6 |
| 20260906010958 | 73 | 54 | 0.0 | 0.0 | 0.00 | 0.00 | 0.00 | 90 | 1011.5 |
| 20260906010424 | 73 | 118 | 0.0 | 0.0 | 0.00 | 0.00 | 0.00 | 91 | 1011.4 |
| 20260906005319 | 73 | 136 | 0.0 | 0.0 | 0.00 | 0.00 | 0.00 | 93 | 1011.2 |
| 20260906004745 | 73 | 81 | 0.0 | 0.0 | 0.00 | 0.00 | 0.00 | 95 | 1011.3 |
| 20260906003111 | 74 | 80 | 0.0 | 0.0 | 0.00 | 0.00 | 0.00 | 96 | 1011.0 |
| 20260906002537 | 74 | 80 | 0.0 | 0.0 | 0.00 | 0.00 | 0.00 | 96 | 1011.0 |
| 20260906002003 | 74 | 80 | 0.0 | 0.0 | 0.00 | 0.00 | 0.00 | 96 | 1010.9 |
| 20260906001429 | 74 | 80 | 0.0 | 0.0 | 0.00 | 0.00 | 0.00 | 96 | 1011.0 |
| 20260906000855 | 74 | 79 | 0.0 | 0.0 | 0.00 | 0.00 | 0.00 | 95 | 1010.9 |
| 20260906000321 | 74 | 80 | 0.0 | 0.0 | 0.00 | 0.00 | 0.00 | 95 | 1010.9 |
| 20260905235747 | 75 | 80 | 0.0 | 0.0 | 0.00 | 0.00 | 0.00 | 95 | 1010.9 |
| 20260905235213 | 75 | 80 | 0.0 | 0.0 | 0.00 | 0.00 | 0.00 | 95 | 1010.9 |
| 20260905234639 | 75 | 80 | 0.0 | 0.0 | 0.00 | 0.00 | 0.00 | 94 | 1010.9 |
| 20260905234105 | 75 | 80 | 0.0 | 0.0 | 0.00 | 0.00 | 0.00 | 93 | 1010.8 |
| 20260905233531 | 75 | 80 | 0.0 | 0.0 | 0.00 | 0.00 | 0.00 | 93 | 1010.8 |
| 20260905232957 | 76 | 80 | 0.0 | 0.0 | 0.00 | 0.00 | 0.00 | 92 | 1010.7 |
| 20260905230753 | 76 | 80 | 0.0 | 0.0 | 0.00 | 0.00 | 0.00 | 92 | 1010.5 |
| 20260905230219 | 76 | 80 | 0.0 | 0.0 | 0.00 | 0.00 | 0.00 | 91 | 1010.5 |
| 20260905225114 | 77 | 80 | 0.0 | 0.0 | 0.00 | 0.00 | 0.00 | 90 | 1010.5 |
| 20260905224540 | 77 | 80 | 0.0 | 0.0 | 0.00 | 0.00 | 0.00 | 90 | 1010.5 |
| 20260905224006 | 77 | 80 | 0.0 | 0.0 | 0.00 | 0.00 | 0.00 | 90 | 1010.5 |
| 20260905223432 | 77 | 79 | 0.0 | 0.0 | 0.00 | 0.00 | 0.00 | 89 | 1010.4 |
| 20260905222858 | 77 | 80 | 0.0 | 0.0 | 0.00 | 0.00 | 0.00 | 88 | 1010.4 |
| 20260905222324 | 77 | 80 | 0.0 | 0.0 | 0.00 | 0.00 | 0.00 | 90 | 1010.4 |
| 20260905221750 | 77 | 80 | 0.0 | 0.0 | 0.00 | 0.00 | 0.00 | 90 | 1010.4 |
| 20260905221216 | 77 | 80 | 0.0 | 0.0 | 0.00 | 0.00 | 0.00 | 91 | 1010.5 |
| 20260905220112 | 77 | 80 | 0.0 | 0.0 | 0.00 | 0.00 | 0.00 | 89 | 1010.3 |
| 20260905215538 | 77 | 80 | 0.0 | 0.0 | 0.00 | 0.00 | 0.00 | 88 | 1010.3 |
| 20260905215004 | 77 | 80 | 0.0 | 0.0 | 0.00 | 0.00 | 0.00 | 90 | 1010.1 |
| 20260905214430 | 77 | 80 | 0.0 | 0.0 | 0.00 | 0.00 | 0.00 | 90 | 1010.1 |
| 20260905213855 | 78 | 80 | 0.0 | 0.0 | 0.00 | 0.00 | 0.00 | 89 | 1010.1 |
| 20260905213321 | 78 | 80 | 0.0 | 0.0 | 0.00 | 0.00 | 0.00 | 89 | 1010.1 |
| 20260905212747 | 78 | 80 | 0.0 | 0.0 | 0.00 | 0.01 | 0.00 | 88 | 1009.8 |
| 20260905211113 | 78 | 112 | 0.0 | 0.0 | 0.00 | 0.01 | 0.00 | 88 | 1009.8 |
| 20260905210539 | 78 | 112 | 0.0 | 0.0 | 0.00 | 0.01 | 0.00 | 88 | 1009.6 |
| 20260905210005 | 78 | 112 | 0.0 | 0.0 | 0.00 | 0.01 | 0.00 | 89 | 1009.7 |
| 20260905205431 | 78 | 112 | 0.0 | 0.0 | 0.00 | 0.01 | 0.00 | 89 | 1009.5 |
| 20260905203226 | 79 | 112 | 0.0 | 0.0 | 0.00 | 0.01 | 0.00 | 87 | 1009.5 |
| 20260905202652 | 79 | 97 | 0.0 | 0.0 | 0.00 | 0.01 | 0.00 | 88 | 1009.8 |
| 20260905202118 | 79 | 110 | 1.0 | 0.0 | 0.00 | 0.01 | 0.00 | 86 | 1009.8 |
| 20260905201544 | 78 | 131 | 0.0 | 0.0 | 0.00 | 0.01 | 0.00 | 88 | 1009.8 |
| 20260905200440 | 78 | 131 | 0.0 | 0.0 | 0.00 | 0.01 | 0.00 | 89 | 1010.0 |
| 20260905195906 | 78 | 131 | 0.0 | 0.0 | 0.00 | 0.01 | 0.00 | 88 | 1009.9 |
| 20260905195332 | 78 | 131 | 0.0 | 0.0 | 0.00 | 0.01 | 0.00 | 88 | 1009.9 |
| 20260905194758 | 78 | 31 | 0.0 | 0.0 | 0.00 | 0.01 | 0.00 | 88 | 1010.1 |
| 20260905194224 | 78 | 29 | 0.0 | 0.0 | 0.00 | 0.01 | 0.00 | 88 | 1010.1 |
| 20260905193649 | 78 | 114 | 0.0 | 0.0 | 0.00 | 0.01 | 0.00 | 88 | 1010.1 |
| 20260905192016 | 78 | 73 | 1.0 | 0.0 | 0.00 | 0.01 | 0.00 | 88 | 1010.0 |
| 20260905191441 | 79 | 92 | 0.0 | 0.0 | 0.00 | 0.01 | 0.00 | 88 | 1010.1 |
| 20260905190337 | 78 | 87 | 0.0 | 0.0 | 0.00 | 0.01 | 0.00 | 88 | 1010.1 |
| 20260905184703 | 78 | 76 | 0.0 | 0.0 | 0.00 | 0.01 | 0.00 | 88 | 1010.4 |
| 20260905184129 | 78 | 73 | 0.0 | 0.0 | 0.00 | 0.01 | 0.00 | 89 | 1010.4 |
| 20260905182455 | 78 | 119 | 0.0 | 0.0 | 0.00 | 0.01 | 0.00 | 89 | 1010.5 |
| 20260905181921 | 78 | 91 | 0.0 | 0.0 | 0.00 | 0.01 | 0.00 | 90 | 1010.5 |
| 20260905181347 | 78 | 90 | 0.0 | 0.0 | 0.00 | 0.01 | 0.00 | 90 | 1010.7 |
| 20260905175142 | 78 | 70 | 0.0 | 0.0 | 0.00 | 0.01 | 0.00 | 91 | 1010.9 |
| 20260905174038 | 77 | 105 | 0.0 | 0.0 | 0.00 | 0.01 | 0.00 | 91 | 1011.1 |
| 20260905173504 | 77 | 105 | 0.0 | 0.0 | 0.00 | 0.01 | 0.00 | 92 | 1011.2 |
| 20260905172400 | 78 | 105 | 0.0 | 0.0 | 0.00 | 0.01 | 0.00 | 92 | 1011.2 |
| 20260905171256 | 78 | 85 | 0.0 | 0.0 | 0.00 | 0.01 | 0.00 | 91 | 1011.5 |
| 20260905164522 | 77 | 84 | 0.0 | 0.0 | 0.00 | 0.01 | 0.00 | 91 | 1011.6 |
| 20260905163947 | 77 | 84 | 0.0 | 0.0 | 0.00 | 0.01 | 0.00 | 91 | 1011.7 |
| 20260905163414 | 77 | 86 | 0.0 | 0.0 | 0.00 | 0.01 | 0.00 | 93 | 1011.6 |
| 20260905162840 | 77 | 85 | 0.0 | 0.0 | 0.00 | 0.01 | 0.00 | 92 | 1011.8 |
| 20260905162306 | 77 | 85 | 0.0 | 0.0 | 0.00 | 0.01 | 0.00 | 92 | 1011.8 |
| 20260905161731 | 76 | 85 | 0.0 | 0.0 | 0.00 | 0.01 | 0.00 | 93 | 1011.8 |
| 20260905160627 | 77 | 85 | 0.0 | 0.0 | 0.00 | 0.01 | 0.00 | 92 | 1012.1 |
| 20260905160052 | 77 | 85 | 1.0 | 0.0 | 0.00 | 0.01 | 0.00 | 93 | 1012.1 |
| 20260905155518 | 76 | 121 | 0.0 | 0.0 | 0.00 | 0.01 | 0.00 | 93 | 1012.0 |
| 20260905154944 | 76 | 121 | 0.0 | 0.0 | 0.00 | 0.01 | 0.00 | 94 | 1012.1 |
| 20260905154410 | 76 | 135 | 0.0 | 0.0 | 0.00 | 0.01 | 0.00 | 96 | 1012.0 |
| 20260905153306 | 76 | 120 | 0.0 | 0.0 | 0.00 | 0.01 | 0.00 | 95 | 1012.1 |
| 20260905152732 | 76 | 134 | 0.0 | 0.0 | 0.00 | 0.01 | 0.00 | 97 | 1012.1 |
| 20260905152158 | 76 | 134 | 0.0 | 0.0 | 0.00 | 0.01 | 0.00 | 97 | 1012.1 |
| 20260905150524 | 76 | 134 | 0.0 | 0.0 | 0.00 | 0.01 | 0.00 | 97 | 1012.2 |
| 20260905145949 | 76 | 134 | 0.0 | 0.0 | 0.00 | 0.01 | 0.00 | 96 | 1012.2 |
| 20260905144845 | 76 | 134 | 0.0 | 0.0 | 0.00 | 0.01 | 0.00 | 97 | 1012.1 |
| 20260905144311 | 76 | 134 | 0.0 | 0.0 | 0.00 | 0.01 | 0.00 | 97 | 1012.0 |
| 20260905141007 | 75 | 131 | 0.0 | 0.0 | 0.00 | 0.01 | 0.00 | 97 | 1012.0 |
| 20260905135903 | 75 | 93 | 1.0 | 0.0 | 0.00 | 0.01 | 0.00 | 99 | 1011.7 |
| 20260905134229 | 74 | 83 | 0.0 | 0.0 | 0.00 | 0.01 | 0.00 | 10 | 1011.4 |
| 20260905133654 | 74 | 141 | 0.0 | 0.0 | 0.00 | 0.01 | 0.00 | 10 | 1011.5 |
| 20260905133120 | 74 | 269 | 0.0 | 0.0 | 0.00 | 0.01 | 0.00 | 10 | 1011.5 |
| 20260905132546 | 74 | 281 | 1.0 | 0.0 | 0.00 | 0.01 | 0.00 | 10 | 1011.4 |
| 20260905131443 | 73 | 238 | 0.0 | 0.0 | 0.00 | 0.01 | 0.00 | 10 | 1011.5 |
| 20260905130908 | 73 | 238 | 0.0 | 0.0 | 0.00 | 0.01 | 0.00 | 10 | 1011.5 |
| 20260905130334 | 72 | 273 | 0.0 | 0.0 | 0.00 | 0.01 | 0.00 | 10 | 1011.4 |